Time,TemperatureF,DewpointF,PressureIn,WindDirection,WindDirectionDegrees,WindSpeedMPH,WindSpeedGustMPH,Humidity,HourlyPrecipIn,Conditions,Clouds,dailyrainin,SoftwareType,DateUTC
2013-10-03 00:13:00,61.0,55.0,29.58,West,276,0.0,0.0,81,0.00,,,-99.99,,2013-10-03 04:13:00,
2013-10-03 00:24:00,61.0,55.0,29.58,West,276,0.0,0.0,81,0.00,,,-99.99,,2013-10-03 04:24:00,
2013-10-03 00:53:00,61.0,55.0,29.59,West,276,0.0,0.0,81,0.00,,,-99.99,,2013-10-03 04:53:00,
2013-10-03 01:13:00,61.0,55.0,29.58,West,276,0.0,0.0,82,0.00,,,-99.99,,2013-10-03 05:13:00,
2013-10-03 01:23:00,61.0,55.0,29.58,West,276,0.0,0.0,82,0.00,,,-99.99,,2013-10-03 05:23:00,
2013-10-03 01:52:00,61.0,55.0,29.58,West,276,0.0,2.0,82,0.00,,,-99.99,,2013-10-03 05:52:00,
2013-10-03 02:02:00,61.0,55.0,29.58,West,276,0.0,2.0,82,0.00,,,-99.99,,2013-10-03 06:02:00,
2013-10-03 02:12:00,61.0,55.0,29.58,West,276,0.0,2.0,82,0.00,,,-99.99,,2013-10-03 06:12:00,
2013-10-03 02:52:00,60.0,55.0,29.58,NNE,17,0.0,1.0,83,0.00,,,-99.99,,2013-10-03 06:52:00,
2013-10-03 03:11:00,60.0,55.0,29.57,NNE,28,1.0,4.0,84,0.00,,,-99.99,,2013-10-03 07:11:00,
2013-10-03 03:22:00,60.0,55.0,29.57,NNE,28,1.0,4.0,84,0.00,,,-99.99,,2013-10-03 07:22:00,
2013-10-03 03:52:00,59.0,54.0,29.57,NE,44,1.0,5.0,84,0.00,,,-99.99,,2013-10-03 07:52:00,
2013-10-03 04:12:00,59.0,54.0,29.57,NE,44,2.0,5.0,85,0.00,,,-99.99,,2013-10-03 08:12:00,
2013-10-03 04:22:00,59.0,54.0,29.57,NE,44,2.0,5.0,85,0.00,,,-99.99,,2013-10-03 08:22:00,
2013-10-03 04:32:00,59.0,54.0,29.57,NE,44,2.0,5.0,85,0.00,,,-99.99,,2013-10-03 08:32:00,
2013-10-03 05:11:00,59.0,55.0,29.57,NE,35,1.0,5.0,86,0.00,,,-99.99,,2013-10-03 09:11:00,
2013-10-03 05:13:00,58.0,54.0,29.58,NNE,17,1.0,3.0,86,0.00,,,-99.99,,2013-10-03 09:13:00,
2013-10-03 05:21:00,59.0,55.0,29.57,NE,35,1.0,5.0,86,0.00,,,-99.99,,2013-10-03 09:21:00,
2013-10-03 05:53:00,58.0,54.0,29.58,NNE,17,1.0,3.0,86,0.00,,,-99.99,,2013-10-03 09:53:00,
2013-10-03 06:03:00,58.0,54.0,29.58,NNE,17,1.0,3.0,86,0.00,,,-99.99,,2013-10-03 10:03:00,
2013-10-03 06:52:00,58.0,54.0,29.56,NNE,17,0.0,2.0,86,0.00,,,-99.99,,2013-10-03 10:52:00,
2013-10-03 07:02:00,58.0,54.0,29.56,NNE,17,0.0,2.0,86,0.00,,,-99.99,,2013-10-03 11:02:00,
2013-10-03 07:12:00,58.0,54.0,29.56,NNE,17,0.0,2.0,86,0.00,,,-99.99,,2013-10-03 11:12:00,
2013-10-03 07:52:00,57.0,53.0,29.56,NNE,17,0.0,0.0,86,0.00,,,-99.99,,2013-10-03 11:52:00,
2013-10-03 08:11:00,58.0,54.0,29.56,NNE,17,0.0,0.0,87,0.00,,,-99.99,,2013-10-03 12:11:00,
2013-10-03 08:22:00,58.0,54.0,29.56,NNE,17,0.0,0.0,87,0.00,,,-99.99,,2013-10-03 12:22:00,
2013-10-03 08:52:00,58.0,54.0,29.57,NNE,17,0.0,0.0,87,0.00,,,-99.99,,2013-10-03 12:52:00,
2013-10-03 09:52:00,59.0,55.0,29.56,NNE,17,0.0,0.0,86,0.00,,,-99.99,,2013-10-03 13:52:00,
2013-10-03 10:22:00,59.0,54.0,29.57,NNE,17,0.0,3.0,85,0.00,,,-99.99,,2013-10-03 14:22:00,
2013-10-03 10:52:00,59.0,54.0,29.57,NNE,17,0.0,1.0,85,0.00,,,-99.99,,2013-10-03 14:52:00,
2013-10-03 11:01:00,59.0,54.0,29.57,NNE,17,0.0,1.0,85,0.00,,,-99.99,,2013-10-03 15:01:00,
2013-10-03 11:11:00,59.0,54.0,29.57,NNE,17,0.0,1.0,85,0.00,,,-99.99,,2013-10-03 15:11:00,
2013-10-03 11:53:00,61.0,56.0,29.58,NNE,17,0.0,2.0,83,0.00,,,-99.99,,2013-10-03 15:53:00,
2013-10-03 12:12:00,61.0,55.0,29.58,NNE,17,0.0,2.0,82,0.00,,,-99.99,,2013-10-03 16:12:00,
2013-10-03 12:23:00,61.0,55.0,29.58,NNE,17,0.0,2.0,82,0.00,,,-99.99,,2013-10-03 16:23:00,
2013-10-03 12:53:00,62.0,56.0,29.58,NNE,17,0.0,1.0,81,0.00,,,-99.99,,2013-10-03 16:53:00,
2013-10-03 13:03:00,62.0,56.0,29.58,NNE,17,0.0,1.0,81,0.00,,,-99.99,,2013-10-03 17:03:00,
2013-10-03 13:12:00,62.0,56.0,29.58,NNE,17,0.0,1.0,81,0.00,,,-99.99,,2013-10-03 17:12:00,
2013-10-03 14:12:00,67.0,56.0,29.57,WNW,296,0.0,0.0,67,0.00,,,-99.99,,2013-10-03 18:12:00,
2013-10-03 14:22:00,67.0,56.0,29.57,WNW,296,0.0,0.0,67,0.00,,,-99.99,,2013-10-03 18:22:00,
2013-10-03 14:52:00,70.0,55.0,29.57,SSW,209,0.0,4.0,59,0.00,,,-99.99,,2013-10-03 18:52:00,
2013-10-03 15:11:00,71.0,57.0,29.56,East,84,1.0,9.0,61,0.00,,,-99.99,,2013-10-03 19:11:00,
2013-10-03 15:21:00,71.0,57.0,29.56,East,84,1.0,9.0,61,0.00,,,-99.99,,2013-10-03 19:21:00,
2013-10-03 15:32:00,71.0,57.0,29.56,East,84,1.0,9.0,61,0.00,,,-99.99,,2013-10-03 19:32:00,
2013-10-03 17:12:00,72.0,57.0,29.53,SSW,202,1.0,7.0,60,0.00,,,-99.99,,2013-10-03 21:12:00,
2013-10-03 17:21:00,72.0,57.0,29.53,SSW,202,1.0,7.0,60,0.00,,,-99.99,,2013-10-03 21:21:00,
2013-10-03 17:34:00,72.0,57.0,29.53,SSW,202,1.0,7.0,60,0.00,,,-99.99,,2013-10-03 21:34:00,
2013-10-03 18:13:00,71.0,56.0,29.51,WSW,256,2.0,9.0,60,0.00,,,-99.99,,2013-10-03 22:13:00,
2013-10-03 18:23:00,71.0,56.0,29.51,WSW,256,2.0,9.0,60,0.00,,,-99.99,,2013-10-03 22:23:00,
2013-10-03 18:43:00,72.0,57.0,29.50,SSW,198,0.0,4.0,60,0.00,,,-99.99,,2013-10-03 22:43:00,
2013-10-03 18:54:00,72.0,57.0,29.51,WSW,245,2.0,7.0,60,0.00,,,-99.99,,2013-10-03 22:54:00,
2013-10-03 19:12:00,72.0,57.0,29.50,SSW,198,0.0,4.0,60,0.00,,,-99.99,,2013-10-03 23:12:00,
2013-10-03 19:22:00,72.0,57.0,29.50,SSW,198,0.0,4.0,60,0.00,,,-99.99,,2013-10-03 23:22:00,
2013-10-03 19:34:00,72.0,57.0,29.50,SSW,198,0.0,4.0,60,0.00,,,-99.99,,2013-10-03 23:34:00,
2013-10-03 20:52:00,68.0,56.0,29.49,South,171,0.0,5.0,65,0.00,,,-99.99,,2013-10-04 00:52:00,
2013-10-03 21:02:00,68.0,56.0,29.49,South,171,0.0,5.0,65,0.00,,,-99.99,,2013-10-04 01:02:00,
2013-10-03 21:12:00,68.0,56.0,29.49,South,171,0.0,5.0,65,0.00,,,-99.99,,2013-10-04 01:12:00,
2013-10-03 21:52:00,65.0,55.0,29.49,West,281,0.0,4.0,71,0.00,,,-99.99,,2013-10-04 01:52:00,
2013-10-03 22:12:00,64.0,56.0,29.49,SE,135,0.0,2.0,74,0.00,,,-99.99,,2013-10-04 02:12:00,
2013-10-03 22:22:00,64.0,56.0,29.49,SE,135,0.0,2.0,74,0.00,,,-99.99,,2013-10-04 02:22:00,
2013-10-03 22:32:00,64.0,56.0,29.49,SE,135,0.0,2.0,74,0.00,,,-99.99,,2013-10-04 02:32:00,
2013-10-03 23:12:00,62.0,55.0,29.50,SE,135,0.0,0.0,78,0.00,,,-99.99,,2013-10-04 03:12:00,
2013-10-03 23:22:00,62.0,55.0,29.50,SE,135,0.0,0.0,78,0.00,,,-99.99,,2013-10-04 03:22:00,
2013-10-03 23:59:00,61.0,54.0,29.50,SE,135,0.0,0.0,79,0.00,,,-99.99,,2013-10-04 03:59:00,